DMSP 5D-2 F13 DEB, 40478

Orbit data source: Space-Track

DMSP 5D-2 F13 DEB, 40478 is space debris in SSO originally from a launch on Fri, 24 Mar 1995 UTC launched from the Air Force Western Test Range (AFWTR). Debris objects in space refer to the collection of defunct objects orbiting the Earth. Examples of debris include non-operational satellites, rocket bodies, and fragments generated from explosions, collisions, or faulty payload assembly.

Loading next visibility...
Identifier
40478, 1995-015BW
Orbit
SSO
Country
Flag of USUS
Related business
Manufacturer
Unknown
Mission
Spacecraft
Bus & Motor
Unknown
Mass
Unknown
Launch date (UTC)
1995-03-24 (31 years ago)
Launch vehicle
Unknown
Launch site
Air Force Western Test Range (AFWTR)
Object type
Payload
Rocket body
Debris
Shape & HBR
Unknown shape, 0.1 m
Radar Cross Section
Small (<0.1 m²)

Expand to show TLE details & history
Last TLE update: 4 days ago

TLE from 4 days ago
0 DMSP 5D-2 F13 DEB
1 40478U 95015BW  26123.81148072  .00003430  00000-0  17212-2 0  9993
2 40478  98.9942  75.0838 0065333 326.7242  32.9832 14.16142721570865
Epoch: 2026-05-03T19:28Z
TLE epoch observation values (Epoch: 2026-05-03T19:28:31.934Z)
Latitude
0.00004°
Longitude
-78.75894°
Altitude
801.863 km
Speed
7.473 km/s
True Right ascension
05h 00m 20s
True Declination
0° 00' 00"
Sunlit
Object was in daylight at epoch
Visualization orbit readout
Latitude
Unknown
Longitude
Unknown
Altitude
Unknown
Speed
Unknown
Apparent Right ascension
Unknown
Apparent Declination
Unknown
Sunlit
N/A
Visualization observer readout
Local Sidereal Time
23:44:58
Azimuth
Unknown
Elevation
Unknown
Doppler factor
Unknown
Orbital elements
Apogee altitude
882.734 km
Perigee altitude
788.475 km
Semi-major axis
7,213.742 km
Eccentricity
0.00653
Inclination
98.9942°
RAAN
75.0838°
Arg. of periapsis
326.7242°
True anomaly
33.39357°
Mean anomaly
32.9832°
Eccentric anomaly
33.1881°
Mean motion
3.54244 °/min
Orbital period
101.62 mins
BSTAR
0.0017212

Documentation

Showing up to 5 results
|